User: anonymous   Login
Location: Gisborne
(38.6530°S, 178.0040°E)
Time: 23:19:20
(UTC+13:00)
Language:

USA 238 - Orbit

View from above orbital plane
View from above orbital plane
View from above satellite
View from above satellite

Ground track
Ground track

The orbit data is extracted from the following two-line orbital elements,

1 38758U 12048A   19280.16657830 0.00000000  00000-0  00000-0 0    05
2 38758  63.4373 318.6880 0103083   1.5119 358.4794 13.40788931    09
Epoch (UTC): 07 October 2019 03:59:52
Eccentricity: 0.0103083
inclination: 63.4373°
perigee height: 1029 km
apogee height: 1183 km
right ascension of ascending node: 318.6880°
argument of perigee: 1.5119°
revolutions per day: 13.40788931
mean anomaly at epoch: 358.4794°
orbit number at epoch: 0

The dashed part of the orbit path shows where the satellite is in the earth's shadow,  

DLR